SCP
0 0 0 0 0 0 0 0 0 0 0 0 0 0 0 0 0 0 0 0 0 -0 -0 0 0 0 0 0 0 0 0 0 0 0 0 0 0 0 0 0 0 0 0 0 0
0 0 0 0 0 0 0 0 0 0 0 0 0 0 0 0 0 0 0 0 0 -0 0 0 0 0 0 0 0 0 0 0 0 0 0 0 0 0 0 0 0 0 0 0 0
0 0 0 0 0 0 0 0 0 0 0 0 0 0 0 0 0 0 0 0 0 0 0 0 0 0 0 0 0 0 0 0 0 0 0 0 0 0 0 0 0 0 0 0 0
0 0 0 0 0 0 0 0 0 0 0 0 0 0 0 0 0 0 0 0 0 0 0 0 0 0 0 0 0 0 0 0 0 0 0 0 0 0 0 0 0 0 0 0 0
0 0 0 0 0 0 0 0 0 0 0 0 0 0 0 0 0 0 0 0 0 0 0 0 0 0 0 0 0 0 0 0 0 0 0 0 0 0 0 0 0 0 0 0 0
0 0 0 0 0 0 0 0 0 0 0 0 0 0 0 0 0 0 0 0 0 0 0 0 0 0 0 0 0 0 0 0 0 0 0 0 0 0 0 0 0 0 0 0 0
0 0 0 0 0 0 0 0 0 0 0 0 0 0 0 0 0 0 0 0 0 0 0 0 0 0 0 0 0 0 0 0 0 0 0 0 0 0 0 0 0 0 0 0 0
0 0 0 0 0 0 0 0 0 0 0 0 0 0 0 0 0 0 0 0 0 0 0 0 0 0 0 0 0 0 0 0 0 0 0 0 0 0 0 0 0 0 0 0 0
0 0 0 0 0 0 0 0 0 0 0 0 0 0 0 0 0 0 0 0 0 0 0 0 0 0 0 0 0 0 0 0 0 0 0 0 0 0 0 0 0 0 0 0 0
0 0 0 0 0 0 0 0 0 0 0 0 0 0 0 0 0 0 0 0 0 0 0 0 0 0 0 0 0 0 0 0 0 0 0 0 0 0 0 0 0 0 0 0 0
0 0 0 0 0 0 0 0 0 0 0 0 0 0 0 0 0 0 0 0 0 0 0 0 0 0 0 0 0 0 0 0 0 0 0 0 0 0 0 0 0 0 0 0 0
0 0 0 0 0 0 0 0 0 0 0 0 0 0 0 0 0 0 0 0 0 0 0 0 0 0 0 0 0 0 0 0 0 0 0 0 0 0 0 0 0 0 0 0 0
0 0 0 0 0 0 0 0 0 0 0 0 0 0 0 0 0 0 0 0 0 0 0 0 0 0 0 0 0 0 0 0 0 0 0 0 0 0 0 0 0 0 0 0 0
0 0 0 0 0 0 0 0 0 0 0 0 0 0 0 0 0 0 0 0 0 0 0 0 0 0 0 0 0 0 0 0 0 0 0 0 0 0 0 0 0 0 0 0 0
0 0 0 0 0 0 0 0 0 0 0 0 0 0 0 0 0 0 0 0 0 0 0 0 0 0 0 0 0 0 0 0 0 0 0 0 0 0 0 0 0 0 0 0 0
0 0 0 0 0 0 0 0 0 0 0 0 0 0 0 0 0 0 0 0 0 0 0 0 0 0 0 0 0 0 0 0 0 0 0 0 0 0 0 0 0 0 0 0 0
0 0 0 0 0 0 0 0 0 0 0 0 0 0 0 0 0 0 0 0 0 0 0 0 0 0 0 0 0 0 0 0 0 0 0 0 0 0 0 0 0 0 0 0 0
0 0 0 0 0 0 0 0 0 0 0 0 0 0 0 0 0 0 0 0 0 0 0 0 0 0 0 0 0 0 0 0 0 0 0 0 0 0 0 0 0 0 0 0 0
0 0 0 0 0 0 0 0 0 0 0 0 0 0 0 0 0 0 0 0 0 0 0 0 0 0 0 0 0 0 0 0 0 0 0 0 0 0 0 0 0 0 0 0 0
0 0 0 0 0 0 0 0 0 0 0 0 0 0 0 0 0 0 0 0 0 0 0 0 0 0 0 0 0 0 0 0 0 0 0 0 0 0 0 0 0 0 0 0 0
0 0 0 0 0 0 0 0 0 0 0 0 0 0 0 0 0 0 0 0 0 0 0 0 0 0 0 0 0 0 0 0 0 0 0 0 0 0 0 0 0 0 0 0 0
0 0 0 0 0 0 0 0 0 0 0 0 0 0 0 0 0 0 0 0 0 0 0 0 0 0 0 0 0 0 0 0 0 0 0 0 0 0 0 0 0 0 0 0 0
0 0 0 0 0 0 0 0 0 0 0 0 0 0 0 0 0 0 0 0 0 0 0 0 0 0 0 0 0 0 0 0 0 0 0 0 0 0 0 0 0 0 0 0 0
0 0 0 0 0 0 0 0 0 0 0 0 0 0 0 0 0 0 0 0 0 0 0 0 0 0 0 0 0 0 0 0 0 0 0 0 0 0 0 0 0 0 0 0 0
0 0 0 0 0 0 0 0 0 0 0 0 0 0 0 0 0 0 0 0 0 0 0 0 0 0 0 0 0 0 0 0 0 0 0 0 0 0 0 0 0 0 0 0 0
0 0 0 0 0 0 0 0 0 0 0 0 0 0 0 0 0 0 0 0 0 0 0 0 0 0 0 0 0 0 0 0 0 0 0 0 0 0 0 0 0 0 0 0 0
0 0 0 0 0 0 0 0 0 0 0 0 0 0 0 0 0 0 0 0 0 0 0 0 0 0 0 0 0 0 0 0 0 0 0 0 0 0 0 0 0 0 0 0 0
Wind_Speed_500mb
14 12 10 7 7 6 4 5 5 6 8 10 11 12 12 11 8 7 14 12 8 8 12 19 21 17 8 12 8 6 8 11 14 23 15 32 23 30 30 45 46 25 31 18 16
16 13 11 9 7 7 6 6 6 6 8 12 15 21 20 17 16 18 14 14 9 8 9 21 12 5 8 10 10 8 10 11 18 28 21 30 36 34 26 36 37 33 24 19 16
18 16 12 11 9 8 8 7 7 8 10 14 14 10 6 6 8 10 10 7 6 7 11 16 21 13 16 17 17 20 8 18 31 38 33 34 28 13 34 16 26 23 19 17 18
19 18 14 12 11 11 10 8 8 8 10 11 10 5 6 6 3 2 5 4 6 7 10 9 10 8 8 10 8 28 31 25 20 39 36 22 17 30 42 21 19 20 18 16 20
19 19 17 12 12 13 12 10 9 9 10 11 9 8 10 5 4 3 5 4 7 8 10 20 15 18 12 27 46 30 31 29 20 30 39 35 30 24 33 23 18 18 16 17 17
22 20 17 15 14 14 12 11 10 10 10 11 9 8 4 5 2 4 5 6 9 9 15 17 14 32 30 12 10 36 42 35 25 27 31 31 34 9 16 17 17 14 13 13 14
27 20 20 16 15 15 13 11 10 10 9 7 8 6 1 8 8 7 8 11 13 15 24 32 34 5 22 24 51 52 27 18 20 26 21 35 10 8 14 22 21 16 13 12 11
30 24 23 19 17 17 15 14 13 11 9 8 8 4 3 9 8 9 12 16 19 17 22 25 28 35 17 49 24 11 12 9 7 19 12 4 8 10 22 29 26 20 13 8 8
34 29 27 24 21 20 17 15 12 10 8 8 7 5 3 10 6 8 9 17 20 20 23 23 17 19 23 18 10 9 6 9 11 10 9 14 8 17 28 29 27 24 18 13 6
37 33 31 28 24 22 19 16 13 8 7 7 8 5 5 7 8 9 14 15 13 16 12 6 8 8 7 9 10 13 9 13 13 13 13 18 8 19 29 31 30 25 21 16 9
42 38 36 32 28 26 24 19 10 3 13 6 5 6 11 14 11 9 14 14 17 5 3 1 4 8 18 3 4 6 15 13 11 2 7 13 14 17 30 31 31 29 26 21 12
48 44 40 37 34 34 36 21 6 4 8 6 4 9 17 22 8 7 16 4 8 6 2 1 1 8 12 5 3 4 18 10 10 0 4 7 15 18 34 34 35 35 31 23 15
54 49 45 43 39 41 44 28 6 13 4 6 13 6 12 10 5 8 12 9 2 8 5 2 8 7 6 8 9 11 6 10 6 10 9 4 15 22 27 34 35 30 31 28 21
55 53 50 47 35 40 50 44 8 14 3 7 10 9 10 12 3 9 16 7 2 8 9 9 5 6 7 9 9 6 11 15 17 12 4 12 9 17 26 24 30 38 31 28 25
54 56 55 50 32 41 31 35 21 7 3 8 8 10 14 6 16 2 11 7 8 7 4 5 9 4 5 7 3 9 3 10 8 5 5 8 1 12 30 31 32 43 45 40 32
57 58 56 60 54 38 36 31 21 8 16 6 9 10 11 7 5 10 3 8 16 8 17 7 4 9 6 8 4 18 16 11 9 4 2 14 14 10 16 38 28 47 53 45 34
62 58 64 64 52 31 37 44 5 12 6 12 10 14 12 9 8 11 11 11 12 10 8 8 6 5 22 15 2 6 6 4 5 3 10 8 3 16 14 12 32 46 55 46 37
64 57 62 57 53 39 55 8 18 17 12 6 10 14 11 14 8 13 13 13 15 2 8 12 7 16 13 2 12 14 5 6 12 7 6 6 13 12 8 23 27 52 58 46 38
68 61 59 73 56 54 38 18 20 17 19 22 15 8 6 9 8 11 15 10 19 21 13 13 6 7 10 6 5 8 7 2 11 4 5 10 10 8 8 9 15 47 54 52 42
88 77 69 74 55 60 12 35 9 19 21 9 20 13 20 15 16 17 21 12 13 25 4 8 11 3 1 3 7 1 8 7 3 5 9 7 3 17 14 21 17 27 50 48 42
95 45 46 65 59 34 26 23 10 19 25 15 15 13 12 17 15 13 16 5 12 15 16 7 10 6 9 15 15 4 3 1 1 6 10 5 11 11 27 33 37 45 54 54 53
74 12 69 81 22 14 28 14 18 15 20 9 7 8 16 21 16 14 22 5 28 25 19 7 10 8 11 5 7 4 13 12 8 11 3 4 13 4 10 33 47 50 59 58 58
57 21 79 77 28 28 16 22 18 11 13 15 17 8 5 16 10 11 12 11 30 17 18 15 5 7 3 2 2 11 13 10 7 4 9 9 13 4 4 5 45 53 58 60 59
39 10 16 40 69 49 31 19 39 24 11 14 12 14 10 6 2 14 7 3 3 2 7 13 6 13 16 10 12 12 18 26 13 6 11 28 22 9 13 17 27 54 61 65 64
38 13 28 20 36 41 44 30 43 22 14 35 5 13 19 10 7 9 8 7 1 7 4 8 12 6 3 7 6 8 10 27 25 46 18 36 35 51 27 28 54 62 64 67 64
28 17 27 5 47 43 41 48 64 58 36 15 9 24 10 18 19 19 17 9 12 12 12 4 6 6 7 7 9 6 13 20 43 28 36 46 46 7 31 52 50 66 73 72 71
44 35 35 28 36 40 52 73 71 52 44 60 36 23 24 12 25 32 15 28 22 20 13 13 12 7 8 1 1 6 34 42 37 16 39 34 54 18 13 35 62 75 85 86 81
Wind_Direction_500mb
258 266 270 270 265 262 228 226 211 198 166 146 136 120 111 107 106 87 64 63 60 80 96 77 59 86 54 57 47 320 117 125 162 128 125 123 106 92 86 82 73 83 79 75 46
256 259 256 252 230 222 229 213 210 194 169 142 135 126 112 97 77 75 62 63 67 73 99 103 86 53 62 34 357 313 97 76 66 105 137 142 126 130 118 100 93 81 72 68 49
254 251 246 242 227 210 209 217 217 192 173 155 149 151 144 125 99 28 47 57 80 89 92 103 103 99 87 56 1 355 98 99 74 102 125 102 122 146 109 66 71 89 84 70 53
247 257 247 234 224 211 204 208 211 208 188 190 182 176 157 148 222 52 54 73 105 107 121 84 98 102 80 89 30 110 82 84 87 106 120 99 84 63 86 104 111 102 98 80 57
238 247 245 227 229 215 203 204 200 205 199 196 186 157 138 82 124 108 98 117 121 113 116 116 116 105 98 95 88 91 94 92 109 110 112 113 91 103 101 119 114 103 95 84 76
227 242 238 231 220 216 209 204 200 203 203 197 194 194 192 243 170 105 110 113 108 133 120 103 121 121 78 34 56 124 112 108 109 110 111 114 134 117 134 132 123 121 106 94 76
237 229 231 224 216 214 211 208 200 203 204 207 208 194 285 198 180 128 116 102 100 115 125 128 129 188 112 87 116 116 108 106 120 133 126 130 86 83 169 163 155 150 136 108 81
237 224 222 213 217 212 205 205 194 197 200 190 163 164 217 167 161 137 123 100 100 115 118 122 117 105 102 123 139 106 133 131 161 161 155 75 134 151 164 170 167 162 151 131 90
228 231 220 203 203 212 203 193 193 190 194 196 198 208 264 171 153 145 131 120 106 105 107 108 98 98 131 131 108 226 188 145 150 237 152 203 136 175 177 178 170 175 173 166 142
226 226 222 207 198 202 196 184 178 175 176 191 202 202 192 210 155 144 135 130 111 111 82 73 109 122 168 215 186 175 188 130 156 180 216 202 134 167 193 190 183 179 180 180 187
220 220 218 208 195 194 184 155 148 126 203 191 202 154 154 148 144 136 139 124 118 74 196 308 175 185 194 201 27 272 135 151 73 109 227 219 153 182 201 204 190 186 190 189 202
219 217 215 209 195 195 190 166 208 180 125 204 175 182 167 146 119 135 151 113 164 140 131 184 140 75 55 71 226 250 128 98 64 99 328 195 211 192 193 214 203 198 198 188 189
222 213 213 209 199 200 203 194 161 172 243 177 172 157 169 154 115 170 148 141 289 133 206 117 63 97 138 151 160 21 138 159 128 156 265 184 260 199 198 211 207 207 203 191 199
226 214 211 207 204 204 216 211 233 178 342 178 199 186 171 144 122 164 158 117 91 144 112 64 135 171 155 121 24 109 340 102 132 154 222 174 278 199 197 208 204 214 210 199 199
229 215 210 200 194 197 203 210 215 173 231 109 149 165 168 186 141 112 144 89 136 110 173 128 139 217 164 49 1 146 143 112 145 218 39 194 286 271 180 210 209 203 203 202 196
232 219 201 197 205 194 191 173 163 57 231 144 127 160 145 163 120 119 106 100 122 94 45 85 13 23 85 85 82 146 113 93 72 54 342 215 174 233 181 218 202 198 198 196 192
229 223 201 202 198 193 175 146 73 207 282 173 179 164 180 164 155 190 169 170 157 126 158 125 116 58 144 87 30 294 150 54 348 9 225 19 236 260 206 177 198 189 186 190 187
225 222 206 197 194 186 167 94 211 174 204 163 129 158 184 150 181 189 169 191 238 198 119 151 243 164 196 260 175 201 205 181 206 195 211 113 231 254 343 158 186 185 178 184 187
213 208 212 201 187 178 185 213 201 182 162 140 101 116 217 188 150 161 203 218 188 198 164 164 112 34 13 360 13 175 194 59 97 54 54 217 267 300 161 137 136 151 170 178 184
193 193 208 203 185 179 205 224 208 143 128 158 162 163 178 184 178 187 185 217 191 177 164 149 106 170 118 311 21 9 158 92 336 199 258 254 242 243 209 200 181 173 175 180 191
185 170 204 204 185 192 214 208 215 163 144 156 179 145 168 175 192 200 198 266 154 152 145 128 110 117 134 215 178 152 218 223 70 185 203 264 242 208 207 190 190 192 187 187 193
176 179 173 182 167 217 224 168 208 170 186 182 126 110 159 161 169 211 203 308 158 140 157 184 108 160 194 66 14 251 205 173 150 229 225 153 266 39 360 184 188 189 190 192 198
176 141 166 175 183 217 224 204 231 166 164 175 188 140 155 158 133 205 165 317 140 161 161 186 172 91 341 5 5 220 195 201 104 59 207 153 261 31 342 103 187 184 191 190 193
162 129 162 203 215 199 190 201 211 185 167 166 144 118 118 106 68 170 124 13 221 110 140 147 156 177 190 151 129 194 198 195 145 143 210 221 249 227 220 211 190 186 187 190 191
176 170 173 186 217 213 191 176 197 192 219 171 203 198 160 124 89 143 108 125 313 162 100 135 188 133 236 113 146 199 192 191 197 225 202 242 227 242 208 202 201 188 186 186 192
165 153 166 189 200 200 193 206 199 198 174 197 185 186 179 160 178 182 139 185 189 171 161 184 184 99 312 166 161 201 252 226 218 232 250 257 264 159 222 207 191 189 187 192 202
248 200 184 175 190 185 203 209 208 187 209 198 185 162 189 175 110 129 130 154 152 153 160 149 134 127 243 192 171 278 218 223 224 193 228 239 246 150 195 182 194 192 197 202 207
Wind_Speed_850mb
14 12 10 7 7 6 4 5 5 6 8 10 11 12 12 11 8 7 14 12 8 8 12 19 21 17 8 12 8 6 8 11 14 23 15 32 23 30 30 45 46 25 31 18 16
16 13 11 9 7 7 6 6 6 6 8 12 15 21 20 17 16 18 14 14 9 8 9 21 12 5 8 10 10 8 10 11 18 28 21 30 36 34 26 36 37 33 24 19 16
18 16 12 11 9 8 8 7 7 8 10 14 14 10 6 6 8 10 10 7 6 7 11 16 21 13 16 17 17 20 8 18 31 38 33 34 28 13 34 16 26 23 19 17 18
19 18 14 12 11 11 10 8 8 8 10 11 10 5 6 6 3 2 5 4 6 7 10 9 10 8 8 10 8 28 31 25 20 39 36 22 17 30 42 21 19 20 18 16 20
19 19 17 12 12 13 12 10 9 9 10 11 9 8 10 5 4 3 5 4 7 8 10 20 15 18 12 27 46 30 31 29 20 30 39 35 30 24 33 23 18 18 16 17 17
22 20 17 15 14 14 12 11 10 10 10 11 9 8 4 5 2 4 5 6 9 9 15 17 14 32 30 12 10 36 42 35 25 27 31 31 34 9 16 17 17 14 13 13 14
27 20 20 16 15 15 13 11 10 10 9 7 8 6 1 8 8 7 8 11 13 15 24 32 34 5 22 24 51 52 27 18 20 26 21 35 10 8 14 22 21 16 13 12 11
30 24 23 19 17 17 15 14 13 11 9 8 8 4 3 9 8 9 12 16 19 17 22 25 28 35 17 49 24 11 12 9 7 19 12 4 8 10 22 29 26 20 13 8 8
34 29 27 24 21 20 17 15 12 10 8 8 7 5 3 10 6 8 9 17 20 20 23 23 17 19 23 18 10 9 6 9 11 10 9 14 8 17 28 29 27 24 18 13 6
37 33 31 28 24 22 19 16 13 8 7 7 8 5 5 7 8 9 14 15 13 16 12 6 8 8 7 9 10 13 9 13 13 13 13 18 8 19 29 31 30 25 21 16 9
42 38 36 32 28 26 24 19 10 3 13 6 5 6 11 14 11 9 14 14 17 5 3 1 4 8 18 3 4 6 15 13 11 2 7 13 14 17 30 31 31 29 26 21 12
48 44 40 37 34 34 36 21 6 4 8 6 4 9 17 22 8 7 16 4 8 6 2 1 1 8 12 5 3 4 18 10 10 0 4 7 15 18 34 34 35 35 31 23 15
54 49 45 43 39 41 44 28 6 13 4 6 13 6 12 10 5 8 12 9 2 8 5 2 8 7 6 8 9 11 6 10 6 10 9 4 15 22 27 34 35 30 31 28 21
55 53 50 47 35 40 50 44 8 14 3 7 10 9 10 12 3 9 16 7 2 8 9 9 5 6 7 9 9 6 11 15 17 12 4 12 9 17 26 24 30 38 31 28 25
54 56 55 50 32 41 31 35 21 7 3 8 8 10 14 6 16 2 11 7 8 7 4 5 9 4 5 7 3 9 3 10 8 5 5 8 1 12 30 31 32 43 45 40 32
57 58 56 60 54 38 36 31 21 8 16 6 9 10 11 7 5 10 3 8 16 8 17 7 4 9 6 8 4 18 16 11 9 4 2 14 14 10 16 38 28 47 53 45 34
62 58 64 64 52 31 37 44 5 12 6 12 10 14 12 9 8 11 11 11 12 10 8 8 6 5 22 15 2 6 6 4 5 3 10 8 3 16 14 12 32 46 55 46 37
64 57 62 57 53 39 55 8 18 17 12 6 10 14 11 14 8 13 13 13 15 2 8 12 7 16 13 2 12 14 5 6 12 7 6 6 13 12 8 23 27 52 58 46 38
68 61 59 73 56 54 38 18 20 17 19 22 15 8 6 9 8 11 15 10 19 21 13 13 6 7 10 6 5 8 7 2 11 4 5 10 10 8 8 9 15 47 54 52 42
88 77 69 74 55 60 12 35 9 19 21 9 20 13 20 15 16 17 21 12 13 25 4 8 11 3 1 3 7 1 8 7 3 5 9 7 3 17 14 21 17 27 50 48 42
95 45 46 65 59 34 26 23 10 19 25 15 15 13 12 17 15 13 16 5 12 15 16 7 10 6 9 15 15 4 3 1 1 6 10 5 11 11 27 33 37 45 54 54 53
74 12 69 81 22 14 28 14 18 15 20 9 7 8 16 21 16 14 22 5 28 25 19 7 10 8 11 5 7 4 13 12 8 11 3 4 13 4 10 33 47 50 59 58 58
57 21 79 77 28 28 16 22 18 11 13 15 17 8 5 16 10 11 12 11 30 17 18 15 5 7 3 2 2 11 13 10 7 4 9 9 13 4 4 5 45 53 58 60 59
39 10 16 40 69 49 31 19 39 24 11 14 12 14 10 6 2 14 7 3 3 2 7 13 6 13 16 10 12 12 18 26 13 6 11 28 22 9 13 17 27 54 61 65 64
38 13 28 20 36 41 44 30 43 22 14 35 5 13 19 10 7 9 8 7 1 7 4 8 12 6 3 7 6 8 10 27 25 46 18 36 35 51 27 28 54 62 64 67 64
28 17 27 5 47 43 41 48 64 58 36 15 9 24 10 18 19 19 17 9 12 12 12 4 6 6 7 7 9 6 13 20 43 28 36 46 46 7 31 52 50 66 73 72 71
44 35 35 28 36 40 52 73 71 52 44 60 36 23 24 12 25 32 15 28 22 20 13 13 12 7 8 1 1 6 34 42 37 16 39 34 54 18 13 35 62 75 85 86 81
Wind_Direction_850mb
258 266 270 270 265 262 228 226 211 198 166 146 136 120 111 107 106 87 64 63 60 80 96 77 59 86 54 57 47 320 117 125 162 128 125 123 106 92 86 82 73 83 79 75 46
256 259 256 252 230 222 229 213 210 194 169 142 135 126 112 97 77 75 62 63 67 73 99 103 86 53 62 34 357 313 97 76 66 105 137 142 126 130 118 100 93 81 72 68 49
254 251 246 242 227 210 209 217 217 192 173 155 149 151 144 125 99 28 47 57 80 89 92 103 103 99 87 56 1 355 98 99 74 102 125 102 122 146 109 66 71 89 84 70 53
247 257 247 234 224 211 204 208 211 208 188 190 182 176 157 148 222 52 54 73 105 107 121 84 98 102 80 89 30 110 82 84 87 106 120 99 84 63 86 104 111 102 98 80 57
238 247 245 227 229 215 203 204 200 205 199 196 186 157 138 82 124 108 98 117 121 113 116 116 116 105 98 95 88 91 94 92 109 110 112 113 91 103 101 119 114 103 95 84 76
227 242 238 231 220 216 209 204 200 203 203 197 194 194 192 243 170 105 110 113 108 133 120 103 121 121 78 34 56 124 112 108 109 110 111 114 134 117 134 132 123 121 106 94 76
237 229 231 224 216 214 211 208 200 203 204 207 208 194 285 198 180 128 116 102 100 115 125 128 129 188 112 87 116 116 108 106 120 133 126 130 86 83 169 163 155 150 136 108 81
237 224 222 213 217 212 205 205 194 197 200 190 163 164 217 167 161 137 123 100 100 115 118 122 117 105 102 123 139 106 133 131 161 161 155 75 134 151 164 170 167 162 151 131 90
228 231 220 203 203 212 203 193 193 190 194 196 198 208 264 171 153 145 131 120 106 105 107 108 98 98 131 131 108 226 188 145 150 237 152 203 136 175 177 178 170 175 173 166 142
226 226 222 207 198 202 196 184 178 175 176 191 202 202 192 210 155 144 135 130 111 111 82 73 109 122 168 215 186 175 188 130 156 180 216 202 134 167 193 190 183 179 180 180 187
220 220 218 208 195 194 184 155 148 126 203 191 202 154 154 148 144 136 139 124 118 74 196 308 175 185 194 201 27 272 135 151 73 109 227 219 153 182 201 204 190 186 190 189 202
219 217 215 209 195 195 190 166 208 180 125 204 175 182 167 146 119 135 151 113 164 140 131 184 140 75 55 71 226 250 128 98 64 99 328 195 211 192 193 214 203 198 198 188 189
222 213 213 209 199 200 203 194 161 172 243 177 172 157 169 154 115 170 148 141 289 133 206 117 63 97 138 151 160 21 138 159 128 156 265 184 260 199 198 211 207 207 203 191 199
226 214 211 207 204 204 216 211 233 178 342 178 199 186 171 144 122 164 158 117 91 144 112 64 135 171 155 121 24 109 340 102 132 154 222 174 278 199 197 208 204 214 210 199 199
229 215 210 200 194 197 203 210 215 173 231 109 149 165 168 186 141 112 144 89 136 110 173 128 139 217 164 49 1 146 143 112 145 218 39 194 286 271 180 210 209 203 203 202 196
232 219 201 197 205 194 191 173 163 57 231 144 127 160 145 163 120 119 106 100 122 94 45 85 13 23 85 85 82 146 113 93 72 54 342 215 174 233 181 218 202 198 198 196 192
229 223 201 202 198 193 175 146 73 207 282 173 179 164 180 164 155 190 169 170 157 126 158 125 116 58 144 87 30 294 150 54 348 9 225 19 236 260 206 177 198 189 186 190 187
225 222 206 197 194 186 167 94 211 174 204 163 129 158 184 150 181 189 169 191 238 198 119 151 243 164 196 260 175 201 205 181 206 195 211 113 231 254 343 158 186 185 178 184 187
213 208 212 201 187 178 185 213 201 182 162 140 101 116 217 188 150 161 203 218 188 198 164 164 112 34 13 360 13 175 194 59 97 54 54 217 267 300 161 137 136 151 170 178 184
193 193 208 203 185 179 205 224 208 143 128 158 162 163 178 184 178 187 185 217 191 177 164 149 106 170 118 311 21 9 158 92 336 199 258 254 242 243 209 200 181 173 175 180 191
185 170 204 204 185 192 214 208 215 163 144 156 179 145 168 175 192 200 198 266 154 152 145 128 110 117 134 215 178 152 218 223 70 185 203 264 242 208 207 190 190 192 187 187 193
176 179 173 182 167 217 224 168 208 170 186 182 126 110 159 161 169 211 203 308 158 140 157 184 108 160 194 66 14 251 205 173 150 229 225 153 266 39 360 184 188 189 190 192 198
176 141 166 175 183 217 224 204 231 166 164 175 188 140 155 158 133 205 165 317 140 161 161 186 172 91 341 5 5 220 195 201 104 59 207 153 261 31 342 103 187 184 191 190 193
162 129 162 203 215 199 190 201 211 185 167 166 144 118 118 106 68 170 124 13 221 110 140 147 156 177 190 151 129 194 198 195 145 143 210 221 249 227 220 211 190 186 187 190 191
176 170 173 186 217 213 191 176 197 192 219 171 203 198 160 124 89 143 108 125 313 162 100 135 188 133 236 113 146 199 192 191 197 225 202 242 227 242 208 202 201 188 186 186 192
165 153 166 189 200 200 193 206 199 198 174 197 185 186 179 160 178 182 139 185 189 171 161 184 184 99 312 166 161 201 252 226 218 232 250 257 264 159 222 207 191 189 187 192 202
248 200 184 175 190 185 203 209 208 187 209 198 185 162 189 175 110 129 130 154 152 153 160 149 134 127 243 192 171 278 218 223 224 193 228 239 246 150 195 182 194 192 197 202 207